Regional Weather Roundup
Issued by NWS Newport/Morehead, NC

Current Version | Previous Version | Graphics & Text | Print | Product List | Glossary On
Versions: 1 2 3 4 5 6 7 8 9 10 11 12 13 14 15 16 17 18 19 20 21 22 23 24 25 26 27 28 29 30 31 32 33 34 35 36 37 38 39 40 41 42 43 44 45 46 47 48 49 50
000 ASUS42 KMHX 201510 RWRMHX WEATHER ROUNDUP FOR EASTERN NORTH CAROLINA NATIONAL WEATHER SERVICE NEWPORT/MOREHEAD CITY NC 1000 AM EST SAT DEC 20 2014 NOTE: "FAIR" INDICATES FEW OR NO CLOUDS BELOW 12,000 FEET WITH NO SIGNIFICANT WEATHER AND/OR OBSTRUCTIONS TO VISIBILITY NCZ015>017-031-032-045>047-102-103-201600- NORTH COAST CITY SKY/WX TMP DP RH WIND PRES REMARKS EDENTON N/A 36 31 82 NE5 30.31S ELIZABETH CITY CLOUDY 41 30 65 N7 30.32S KITTY HAWK CLOUDY 42 34 75 CALM 30.29S MANTEO CLOUDY 41 35 77 N8 30.31R $$ NCZ045>047-081-094-103-104-201600- CENTRAL COAST CITY SKY/WX TMP DP RH WIND PRES REMARKS FRISCO CLOUDY 44 37 76 N7 30.29S SWANQUARTER N/A 41 N/A N/A NE3G12 30.27S $$ NCZ095-097-098-100-101-201600- SOUTHERN COAST CITY SKY/WX TMP DP RH WIND PRES REMARKS BEAUFORT LGT RAIN 44 40 85 NE9 30.27S CEDAR ISLAND N/A 43 N/A N/A N15 30.33S JACKSONVILLE LGT RAIN 42 38 85 NE9 30.27R PINEY ISLAND LGT RAIN 45 37 73 NE10 30.28R WILMINGTON LGT RAIN 43 41 93 NE9 30.25R $$ NCZ011>013-027>030-043-044-078>080-089-090>093-098-201600- COASTAL PLAIN CITY SKY/WX TMP DP RH WIND PRES REMARKS AHOSKIE CLOUDY 34 28 77 N5 30.32S CLINTON LGT RAIN 39 38 95 NE3 30.29R ELIZABETHTOWN LGT RAIN 41 38 89 CALM 30.27R GOLDSBORO CLOUDY 37 37 97 NE2 30.28R GREENVILLE CLOUDY 37 32 81 NE3 30.31R HAVELOCK LGT RAIN 42 38 85 NE12 30.28S KENANSVILLE LGT RAIN 39 37 92 NE5 30.29R KINSTON LGT RAIN 37 34 87 N6 30.30R NEW BERN CLOUDY 42 36 79 NE8 30.29S RICHLANDS CLOUDY 39 36 87 NE9 30.28R ROCKY MOUNT CLOUDY 37 27 67 NE6 30.32R WASHINGTON CLOUDY 37 32 81 NE5 30.30S WHITEVILLE DRIZZLE 42 38 86 NE6 30.26R $$ AMZ130-135-150-152-154-156-158-170-250-252-270-ANZ085-086-088-633-658-670-201600- MARINE OBSERVATIONS STATION/POSITION TIME TEMP WIND PRES WAVE SWELL AIR SEA DIR/SP/G HT/PER HT/PER (UTC) (F) (DEG/KT/KT) (MB) (FT/S) (FT/S) CHESAPEAKE LIGHT 1400 38 340/ 9/ 10 1026.9 64 E VA BEACH 1500 43 54 340/ 8/ 12 1025.8 2/ 5 2/ 5 DUCK 1500 40 46 350/ 10/ 11 1025.3 2 E DUCK 1500 46 N/A 2/ 5 10 NE DUCK 1500 52 N/A 3/ 5 OREGON INLET 1500 43 49 330/ 5/ 8 1026.0 13E OREGON INLT 1500 52 N/A 3/ 5 HATTERAS CG 1500 44 52 10/ 12/ 14 1025.8 DIAMOND BUOY 1500 48 1025.6 3/ 7 17 S OCRACOKE NOT AVBL CAPE LOOKOUT 1400 46 20/ 11/ 14 1024.5 BEAUFORT LAB 1500 44 53 30/ 6/ 11 1023.9 30 SE NEW RIVER 1500 52 61 50/ 14/ 17 1024.4 2/ 4 2/ 8 5 SE WRIGHTSVLE NOT AVBL 225 S CAPE HAT 1356 66 72 80/ 12/ 14 1022.6 3/10 2/10 41 SE CHARLESTON 1500 61 68 50/ 16/ 17 1021.0 4/ 5 2/10 $$

USA.gov is the U.S. government's official web portal to all federal, state and local government web resources and services.